星链-35989(STARLINK-35989)

导读

STARLINK-35989是美国SpaceX星链星座中的一颗卫星,于2025年12月1日发射升空。星链项目旨在构建全球卫星互联网星座,为全球提供高速低延迟的宽带网络服务,覆盖偏远地区及地面网络难以抵达区域。该卫星加入星座后,将进一步扩充星链网络的容量与覆盖范围,提升全球卫星互联网服务的稳定性和服务能力。

Basic Information
目录编号:
66819
目录名称:
STARLINK-35989
国际标识:
2025-278AE
轨道中心:
EARTH
卫星名称:
星链-35989
卫星全名:
星链-35989(STARLINK-35989)
卫星状态:
在轨 (已飞行277 天)
发射日期:
2025-12-01 UTC
国别 :
美国 (US)
星等 :
--
Orbit Information
数据来源 国际轨道数据
星历时间: 2026-09-04T13:30:57+0800
7小时前
查看轨道信息
半长轴: 6861.176km
偏心率: 0.0001548
轨道倾角: 43.002°
近地点辐角 265.531°
升交点赤经 186.135°
平近点角 94.536°
近地点: 481.976km
远地点: 484.102km
周期: 94.267分钟
每日圈数: 15.275835
Detailed Information
固有亮度:
5
最大亮度:
2.5
卫星平台:
Starlink V1.0
覆盖范围:
全球
运营商:
太空探索技术公司
运营商所在国:
美国
制造商(研发单位):
太空探索技术公司
制造商所在国:
美国
使用方式:
暂无
Satellite Introduction
Starlink 计划是 SpaceX 推出的全球卫星互联网项目,通过发射低轨道卫星,为全球尤其是偏远地区提供高速、低延迟的互联网服务。自 2019 年起,Starlink 已部署数千颗卫星,旨在缩小全球数字鸿沟,推动互联网普及。该项目还为军事、航空等行业提供通信支持,带来广泛经济效益。
2D Orbit Map
3D Orbit Map
Orbit Altitude Analysis Chart
Orbit Inclination Analysis Chart
Orbit Comprehensive Analysis Chart
View Comprehensive Chart
Conjunction Data List
Event ID Objects TCA Miss Dist (km) Collision Risk Probability Collision Risk Index (CRI) Action
CDM_260905-084205-639606-681921
2026-09-05T
08:42:19+0000
0.746 km
远距离
3.883506E-5 中风险 0.67
CDM_260905-015206-652506-681921
2026-09-05T
01:52:01+0000
0.854 km
远距离
3.580277E-5 中风险 0.66
CDM_260904-181305-912106-681921
2026-09-04T
18:13:16+0000
2.304 km
极远距离
1.999528E-6 低风险 0.41
CDM_260905-070805-639606-681921
2026-09-05T
07:08:10+0000
1.915 km
极远距离
1.845293E-6 低风险 0.4
CDM_260904-215606-652506-681921
2026-09-04T
21:56:36+0000
2.528 km
极远距离
1.390149E-6 低风险 0.38